Time,TemperatureF,DewpointF,PressureIn,WindDirection,WindDirectionDegrees,WindSpeedMPH,WindSpeedGustMPH,Humidity,HourlyPrecipIn,Conditions,Clouds,dailyrainin,SolarRadiationWatts/m^2,SoftwareType,DateUTC
2013-08-31 00:02:00,76.4,67.9,29.86,East,93,2.0,2.0,75,0.00,,,0.00,0,WeatherCatV1.11B39,2013-08-31 07:02:00,
2013-08-31 00:07:00,76.3,67.0,29.86,ENE,68,0.0,0.0,73,0.00,,,0.00,0,WeatherCatV1.11B39,2013-08-31 07:07:00,
2013-08-31 00:12:00,76.2,68.1,29.86,ENE,68,0.0,1.0,76,0.00,,,0.00,0,WeatherCatV1.11B39,2013-08-31 07:12:00,
2013-08-31 00:17:00,76.2,68.1,29.86,ENE,68,1.0,1.0,76,0.00,,,0.00,0,WeatherCatV1.11B39,2013-08-31 07:17:00,
2013-08-31 00:22:00,76.1,67.6,29.86,ENE,67,0.0,3.0,75,0.00,,,0.00,0,WeatherCatV1.11B39,2013-08-31 07:22:00,
2013-08-31 00:27:00,76.0,67.5,29.86,ENE,64,2.0,3.0,75,0.00,,,0.00,0,WeatherCatV1.11B39,2013-08-31 07:27:00,
2013-08-31 00:32:00,76.0,66.7,29.85,WNW,286,3.0,4.0,73,0.00,,,0.00,0,WeatherCatV1.11B39,2013-08-31 07:32:00,
2013-08-31 00:37:00,76.0,66.3,29.86,West,280,4.0,5.0,72,0.00,,,0.00,0,WeatherCatV1.11B39,2013-08-31 07:37:00,
2013-08-31 00:42:00,76.1,66.4,29.86,WNW,284,0.0,4.0,72,0.00,,,0.00,0,WeatherCatV1.11B39,2013-08-31 07:42:00,
2013-08-31 00:47:00,76.2,66.5,29.86,West,281,0.0,2.0,72,0.00,,,0.00,0,WeatherCatV1.11B39,2013-08-31 07:47:00,
2013-08-31 00:52:00,76.3,67.0,29.86,West,281,0.0,0.0,73,0.00,,,0.00,0,WeatherCatV1.11B39,2013-08-31 07:52:00,
2013-08-31 00:57:00,76.4,67.5,29.86,WNW,283,1.0,1.0,74,0.00,,,0.00,0,WeatherCatV1.11B39,2013-08-31 07:57:00,
2013-08-31 01:02:00,76.4,67.9,29.86,WNW,285,1.0,2.0,75,0.00,,,0.00,0,WeatherCatV1.11B39,2013-08-31 08:02:00,
2013-08-31 01:07:00,76.2,67.7,29.86,WNW,286,0.0,1.0,75,0.00,,,0.00,0,WeatherCatV1.11B39,2013-08-31 08:07:00,
2013-08-31 01:12:00,76.2,68.1,29.86,WNW,286,0.0,1.0,76,0.00,,,0.00,0,WeatherCatV1.11B39,2013-08-31 08:12:00,
2013-08-31 01:17:00,76.1,68.0,29.86,WNW,286,0.0,1.0,76,0.00,,,0.00,0,WeatherCatV1.11B39,2013-08-31 08:17:00,
2013-08-31 01:22:00,76.0,67.9,29.86,WNW,286,0.0,0.0,76,0.00,,,0.00,0,WeatherCatV1.11B39,2013-08-31 08:22:00,
2013-08-31 01:27:00,76.0,67.9,29.85,WNW,286,0.0,1.0,76,0.00,,,0.00,0,WeatherCatV1.11B39,2013-08-31 08:27:00,
2013-08-31 01:32:00,75.8,67.7,29.85,WNW,286,0.0,0.0,76,0.00,,,0.00,0,WeatherCatV1.11B39,2013-08-31 08:32:00,
2013-08-31 01:37:00,75.8,68.1,29.85,WNW,286,0.0,0.0,77,0.00,,,0.00,0,WeatherCatV1.11B39,2013-08-31 08:37:00,
2013-08-31 01:42:00,75.6,68.2,29.85,WNW,286,0.0,1.0,78,0.00,,,0.00,0,WeatherCatV1.11B39,2013-08-31 08:42:00,
2013-08-31 01:47:00,75.4,68.0,29.84,WNW,286,0.0,1.0,78,0.00,,,0.00,0,WeatherCatV1.11B39,2013-08-31 08:47:00,
2013-08-31 01:52:00,75.2,67.9,29.84,WNW,287,0.0,1.0,78,0.00,,,0.00,0,WeatherCatV1.11B39,2013-08-31 08:52:00,
2013-08-31 01:57:00,75.0,67.7,29.84,WNW,287,0.0,1.0,78,0.00,,,0.00,0,WeatherCatV1.11B39,2013-08-31 08:57:00,
2013-08-31 02:02:00,74.8,67.5,29.84,WNW,287,0.0,0.0,78,0.00,,,0.00,0,WeatherCatV1.11B39,2013-08-31 09:02:00,
2013-08-31 02:07:00,74.6,67.3,29.83,WNW,287,0.0,1.0,78,0.00,,,0.00,0,WeatherCatV1.11B39,2013-08-31 09:07:00,
2013-08-31 02:12:00,74.4,67.4,29.83,WNW,288,0.0,1.0,79,0.00,,,0.00,0,WeatherCatV1.11B39,2013-08-31 09:12:00,
2013-08-31 02:17:00,74.3,67.4,29.83,WNW,288,0.0,1.0,79,0.00,,,0.00,0,WeatherCatV1.11B39,2013-08-31 09:17:00,
2013-08-31 02:22:00,74.2,67.3,29.83,WNW,288,0.0,0.0,79,0.00,,,0.00,0,WeatherCatV1.11B39,2013-08-31 09:22:00,
2013-08-31 02:27:00,74.1,67.2,29.83,WNW,288,0.0,0.0,79,0.00,,,0.00,0,WeatherCatV1.11B39,2013-08-31 09:27:00,
2013-08-31 02:32:00,74.0,67.4,29.83,WNW,288,0.0,1.0,80,0.00,,,0.00,0,WeatherCatV1.11B39,2013-08-31 09:32:00,
2013-08-31 02:37:00,73.9,67.3,29.83,WNW,288,0.0,0.0,80,0.00,,,0.00,0,WeatherCatV1.11B39,2013-08-31 09:37:00,
2013-08-31 02:42:00,73.8,67.2,29.83,WNW,288,0.0,1.0,80,0.00,,,0.00,0,WeatherCatV1.11B39,2013-08-31 09:42:00,
2013-08-31 02:47:00,73.6,67.4,29.83,WNW,288,1.0,1.0,81,0.00,,,0.00,0,WeatherCatV1.11B39,2013-08-31 09:47:00,
2013-08-31 02:52:00,73.4,67.2,29.83,WNW,288,0.0,0.0,81,0.00,,,0.00,0,WeatherCatV1.11B39,2013-08-31 09:52:00,
2013-08-31 02:57:00,73.4,67.2,29.83,WNW,288,0.0,0.0,81,0.00,,,0.00,0,WeatherCatV1.11B39,2013-08-31 09:57:00,
2013-08-31 03:02:00,73.3,67.1,29.83,WNW,288,0.0,0.0,81,0.00,,,0.00,0,WeatherCatV1.11B39,2013-08-31 10:02:00,
2013-08-31 03:07:00,73.2,67.4,29.83,WNW,288,2.0,2.0,82,0.00,,,0.00,0,WeatherCatV1.11B39,2013-08-31 10:07:00,
2013-08-31 03:12:00,73.0,67.5,29.83,WNW,288,2.0,3.0,83,0.00,,,0.00,0,WeatherCatV1.11B39,2013-08-31 10:12:00,
2013-08-31 03:17:00,72.8,67.3,29.83,WNW,288,0.0,1.0,83,0.00,,,0.00,0,WeatherCatV1.11B39,2013-08-31 10:17:00,
2013-08-31 03:22:00,72.7,67.2,29.83,WNW,288,0.0,1.0,83,0.00,,,0.00,0,WeatherCatV1.11B39,2013-08-31 10:22:00,
2013-08-31 03:27:00,72.5,67.0,29.83,WNW,288,1.0,2.0,83,0.00,,,0.00,0,WeatherCatV1.11B39,2013-08-31 10:27:00,
2013-08-31 03:32:00,72.4,66.9,29.83,WNW,288,1.0,2.0,83,0.00,,,0.00,0,WeatherCatV1.11B39,2013-08-31 10:32:00,
2013-08-31 03:37:00,72.3,66.5,29.83,WNW,288,1.0,1.0,82,0.00,,,0.00,0,WeatherCatV1.11B39,2013-08-31 10:37:00,
2013-08-31 03:42:00,72.2,66.7,29.83,WNW,288,2.0,2.0,83,0.00,,,0.00,0,WeatherCatV1.11B39,2013-08-31 10:42:00,
2013-08-31 03:47:00,72.1,66.6,29.83,WNW,288,1.0,2.0,83,0.00,,,0.00,0,WeatherCatV1.11B39,2013-08-31 10:47:00,
2013-08-31 03:52:00,72.1,66.6,29.84,WNW,288,1.0,1.0,83,0.00,,,0.00,0,WeatherCatV1.11B39,2013-08-31 10:52:00,
2013-08-31 03:57:00,72.0,66.9,29.84,WNW,288,0.0,2.0,84,0.00,,,0.00,0,WeatherCatV1.11B39,2013-08-31 10:57:00,
2013-08-31 04:02:00,71.9,66.8,29.84,WNW,288,0.0,2.0,84,0.00,,,0.00,0,WeatherCatV1.11B39,2013-08-31 11:02:00,
2013-08-31 04:07:00,71.9,66.8,29.84,WNW,288,0.0,0.0,84,0.00,,,0.00,0,WeatherCatV1.11B39,2013-08-31 11:07:00,
2013-08-31 04:12:00,71.8,67.0,29.85,WNW,288,0.0,0.0,85,0.00,,,0.00,0,WeatherCatV1.11B39,2013-08-31 11:12:00,
2013-08-31 04:17:00,71.7,66.9,29.85,WNW,288,0.0,1.0,85,0.00,,,0.00,0,WeatherCatV1.11B39,2013-08-31 11:17:00,
2013-08-31 04:22:00,71.6,66.8,29.84,WNW,288,0.0,0.0,85,0.00,,,0.00,0,WeatherCatV1.11B39,2013-08-31 11:22:00,
2013-08-31 04:27:00,71.5,66.7,29.85,WNW,288,0.0,0.0,85,0.00,,,0.00,0,WeatherCatV1.11B39,2013-08-31 11:27:00,
2013-08-31 04:32:00,71.4,66.6,29.85,WNW,288,0.0,0.0,85,0.00,,,0.00,0,WeatherCatV1.11B39,2013-08-31 11:32:00,
2013-08-31 04:37:00,71.3,66.5,29.85,WNW,288,0.0,0.0,85,0.00,,,0.00,0,WeatherCatV1.11B39,2013-08-31 11:37:00,
2013-08-31 04:42:00,71.2,66.4,29.85,WNW,288,0.0,0.0,85,0.00,,,0.00,0,WeatherCatV1.11B39,2013-08-31 11:42:00,
2013-08-31 04:47:00,71.1,66.7,29.86,WNW,288,0.0,0.0,86,0.00,,,0.00,0,WeatherCatV1.11B39,2013-08-31 11:47:00,
2013-08-31 04:52:00,70.9,66.8,29.86,WNW,288,0.0,1.0,87,0.00,,,0.00,0,WeatherCatV1.11B39,2013-08-31 11:52:00,
2013-08-31 04:57:00,70.8,66.7,29.86,WNW,288,0.0,1.0,87,0.00,,,0.00,0,WeatherCatV1.11B39,2013-08-31 11:57:00,
2013-08-31 05:02:00,70.7,66.6,29.86,WNW,288,0.0,0.0,87,0.00,,,0.00,0,WeatherCatV1.11B39,2013-08-31 12:02:00,
2013-08-31 05:07:00,70.5,66.4,29.86,WNW,288,0.0,0.0,87,0.00,,,0.00,0,WeatherCatV1.11B39,2013-08-31 12:07:00,
2013-08-31 05:12:00,70.4,66.3,29.86,WNW,288,0.0,1.0,87,0.00,,,0.00,0,WeatherCatV1.11B39,2013-08-31 12:12:00,
2013-08-31 05:17:00,70.4,66.3,29.86,WNW,288,1.0,2.0,87,0.00,,,0.00,0,WeatherCatV1.11B39,2013-08-31 12:17:00,
2013-08-31 05:22:00,70.4,66.3,29.86,WNW,288,0.0,1.0,87,0.00,,,0.00,0,WeatherCatV1.11B39,2013-08-31 12:22:00,
2013-08-31 05:27:00,70.4,66.3,29.86,WNW,288,0.0,0.0,87,0.00,,,0.00,0,WeatherCatV1.11B39,2013-08-31 12:27:00,
2013-08-31 05:32:00,70.5,66.4,29.86,WNW,288,1.0,1.0,87,0.00,,,0.00,0,WeatherCatV1.11B39,2013-08-31 12:32:00,
2013-08-31 05:37:00,70.5,66.4,29.86,WNW,288,0.0,0.0,87,0.00,,,0.00,0,WeatherCatV1.11B39,2013-08-31 12:37:00,
2013-08-31 05:42:00,70.5,66.4,29.86,WNW,288,0.0,1.0,87,0.00,,,0.00,0,WeatherCatV1.11B39,2013-08-31 12:42:00,
2013-08-31 05:47:00,70.4,66.0,29.86,WNW,288,0.0,1.0,86,0.00,,,0.00,0,WeatherCatV1.11B39,2013-08-31 12:47:00,
2013-08-31 05:52:00,70.4,66.0,29.86,WNW,288,0.0,1.0,86,0.00,,,0.00,0,WeatherCatV1.11B39,2013-08-31 12:52:00,
2013-08-31 05:57:00,70.5,66.1,29.86,WNW,288,0.0,1.0,86,0.00,,,0.00,5,WeatherCatV1.11B39,2013-08-31 12:57:00,
2013-08-31 06:02:00,70.5,66.1,29.86,WNW,288,1.0,1.0,86,0.00,,,0.00,9,WeatherCatV1.11B39,2013-08-31 13:02:00,
2013-08-31 06:07:00,70.6,66.2,29.86,WNW,289,0.0,1.0,86,0.00,,,0.00,14,WeatherCatV1.11B39,2013-08-31 13:07:00,
2013-08-31 06:12:00,70.6,66.2,29.87,WNW,288,0.0,0.0,86,0.00,,,0.00,18,WeatherCatV1.11B39,2013-08-31 13:12:00,
2013-08-31 06:17:00,70.6,66.2,29.86,WNW,288,0.0,0.0,86,0.00,,,0.00,19,WeatherCatV1.11B39,2013-08-31 13:17:00,
2013-08-31 06:22:00,70.6,66.2,29.86,WNW,288,0.0,0.0,86,0.00,,,0.00,23,WeatherCatV1.11B39,2013-08-31 13:22:00,
2013-08-31 06:27:00,70.6,66.2,29.87,WNW,288,0.0,1.0,86,0.00,,,0.00,26,WeatherCatV1.11B39,2013-08-31 13:27:00,
2013-08-31 06:32:00,70.7,66.6,29.87,WNW,289,1.0,1.0,87,0.00,,,0.00,30,WeatherCatV1.11B39,2013-08-31 13:32:00,
2013-08-31 06:37:00,70.7,66.6,29.87,WNW,289,1.0,2.0,87,0.00,,,0.00,46,WeatherCatV1.11B39,2013-08-31 13:37:00,
2013-08-31 06:42:00,70.8,66.7,29.87,WNW,289,2.0,3.0,87,0.00,,,0.00,63,WeatherCatV1.11B39,2013-08-31 13:42:00,
2013-08-31 06:47:00,71.0,66.6,29.87,WNW,289,0.0,1.0,86,0.00,,,0.00,120,WeatherCatV1.11B39,2013-08-31 13:47:00,
2013-08-31 06:52:00,71.3,66.9,29.87,WNW,289,0.0,0.0,86,0.00,,,0.00,158,WeatherCatV1.11B39,2013-08-31 13:52:00,
2013-08-31 06:57:00,71.9,67.1,29.88,WNW,289,0.0,0.0,85,0.00,,,0.00,188,WeatherCatV1.11B39,2013-08-31 13:57:00,
2013-08-31 07:02:00,72.5,67.4,29.88,WNW,289,0.0,2.0,84,0.00,,,0.00,221,WeatherCatV1.11B39,2013-08-31 14:02:00,
2013-08-31 07:07:00,73.2,67.4,29.88,WNW,289,1.0,3.0,82,0.00,,,0.00,260,WeatherCatV1.11B39,2013-08-31 14:07:00,
2013-08-31 07:12:00,74.0,67.8,29.88,WNW,289,2.0,3.0,81,0.00,,,0.00,287,WeatherCatV1.11B39,2013-08-31 14:12:00,
2013-08-31 07:17:00,75.1,68.1,29.88,WNW,286,3.0,3.0,79,0.00,,,0.00,294,WeatherCatV1.11B39,2013-08-31 14:17:00,
2013-08-31 07:22:00,76.3,68.5,29.88,WNW,286,1.0,3.0,77,0.00,,,0.00,346,WeatherCatV1.11B39,2013-08-31 14:22:00,
2013-08-31 07:27:00,77.3,68.0,29.87,WNW,288,1.0,4.0,73,0.00,,,0.00,371,WeatherCatV1.11B39,2013-08-31 14:27:00,
2013-08-31 07:32:00,78.1,68.3,29.87,WNW,292,0.0,2.0,72,0.00,,,0.00,394,WeatherCatV1.11B39,2013-08-31 14:32:00,
2013-08-31 07:37:00,78.9,68.3,29.87,WNW,292,2.0,2.0,70,0.00,,,0.00,406,WeatherCatV1.11B39,2013-08-31 14:37:00,
2013-08-31 07:42:00,79.7,68.6,29.87,WNW,289,0.0,3.0,69,0.00,,,0.00,264,WeatherCatV1.11B39,2013-08-31 14:42:00,
2013-08-31 07:47:00,80.3,68.3,29.87,WNW,289,1.0,3.0,67,0.00,,,0.00,151,WeatherCatV1.11B39,2013-08-31 14:47:00,
2013-08-31 07:52:00,80.8,67.9,29.87,WNW,288,3.0,3.0,65,0.00,,,0.00,239,WeatherCatV1.11B39,2013-08-31 14:52:00,
2013-08-31 07:57:00,81.4,68.0,29.87,WNW,288,1.0,2.0,64,0.00,,,0.00,420,WeatherCatV1.11B39,2013-08-31 14:57:00,
2013-08-31 08:02:00,81.7,67.4,29.87,WNW,288,0.0,1.0,62,0.00,,,0.00,160,WeatherCatV1.11B39,2013-08-31 15:02:00,
2013-08-31 08:07:00,81.9,68.0,29.87,WNW,288,0.0,2.0,63,0.00,,,0.00,132,WeatherCatV1.11B39,2013-08-31 15:07:00,
2013-08-31 08:12:00,82.0,68.6,29.87,WNW,288,2.0,3.0,64,0.00,,,0.00,148,WeatherCatV1.11B39,2013-08-31 15:12:00,
2013-08-31 08:17:00,81.9,68.5,29.87,WNW,288,0.0,1.0,64,0.00,,,0.00,153,WeatherCatV1.11B39,2013-08-31 15:17:00,
2013-08-31 08:22:00,81.9,67.6,29.87,WNW,288,1.0,1.0,62,0.00,,,0.00,258,WeatherCatV1.11B39,2013-08-31 15:22:00,
2013-08-31 08:27:00,82.1,67.8,29.87,WNW,288,0.0,2.0,62,0.00,,,0.00,299,WeatherCatV1.11B39,2013-08-31 15:27:00,
2013-08-31 08:32:00,82.4,68.0,29.87,WNW,288,0.0,0.0,62,0.00,,,0.00,446,WeatherCatV1.11B39,2013-08-31 15:32:00,
2013-08-31 08:37:00,82.7,67.9,29.87,WNW,288,0.0,2.0,61,0.00,,,0.00,443,WeatherCatV1.11B39,2013-08-31 15:37:00,
2013-08-31 08:42:00,83.5,67.6,29.87,WNW,287,0.0,3.0,59,0.00,,,0.00,677,WeatherCatV1.11B39,2013-08-31 15:42:00,
2013-08-31 08:47:00,84.3,67.9,29.87,WNW,288,1.0,1.0,58,0.00,,,0.00,645,WeatherCatV1.11B39,2013-08-31 15:47:00,
2013-08-31 08:52:00,85.1,68.6,29.86,WSW,240,2.0,5.0,58,0.00,,,0.00,624,WeatherCatV1.11B39,2013-08-31 15:52:00,
2013-08-31 08:57:00,85.7,69.2,29.87,SW,224,4.0,6.0,58,0.00,,,0.00,552,WeatherCatV1.11B39,2013-08-31 15:57:00,
2013-08-31 09:02:00,86.1,68.0,29.86,SW,224,1.0,2.0,55,0.00,,,0.00,603,WeatherCatV1.11B39,2013-08-31 16:02:00,
2013-08-31 09:07:00,86.4,67.8,29.87,SW,228,1.0,4.0,54,0.00,,,0.00,605,WeatherCatV1.11B39,2013-08-31 16:07:00,
2013-08-31 09:12:00,86.6,68.5,29.87,SW,226,3.0,5.0,55,0.00,,,0.00,594,WeatherCatV1.11B39,2013-08-31 16:12:00,
2013-08-31 09:17:00,86.8,67.6,29.86,WNW,299,4.0,4.0,53,0.00,,,0.00,596,WeatherCatV1.11B39,2013-08-31 16:17:00,
2013-08-31 09:22:00,86.8,67.6,29.86,West,272,5.0,6.0,53,0.00,,,0.00,608,WeatherCatV1.11B39,2013-08-31 16:22:00,
2013-08-31 09:27:00,86.8,67.0,29.87,West,273,1.0,4.0,52,0.00,,,0.00,622,WeatherCatV1.11B39,2013-08-31 16:27:00,
2013-08-31 09:32:00,87.0,67.8,29.86,West,267,4.0,5.0,53,0.00,,,0.00,640,WeatherCatV1.11B39,2013-08-31 16:32:00,
2013-08-31 09:37:00,87.1,67.3,29.87,NW,315,2.0,4.0,52,0.00,,,0.00,654,WeatherCatV1.11B39,2013-08-31 16:37:00,
2013-08-31 09:42:00,87.3,66.9,29.87,WNW,290,1.0,5.0,51,0.00,,,0.00,666,WeatherCatV1.11B39,2013-08-31 16:42:00,
2013-08-31 09:47:00,87.5,67.1,29.87,SW,215,1.0,4.0,51,0.00,,,0.00,691,WeatherCatV1.11B39,2013-08-31 16:47:00,
2013-08-31 09:52:00,87.9,66.9,29.86,West,276,2.0,6.0,50,0.00,,,0.00,703,WeatherCatV1.11B39,2013-08-31 16:52:00,
2013-08-31 09:57:00,87.9,66.9,29.86,WNW,301,1.0,4.0,50,0.00,,,0.00,715,WeatherCatV1.11B39,2013-08-31 16:57:00,
2013-08-31 10:02:00,88.1,67.1,29.86,WNW,299,1.0,3.0,50,0.00,,,0.00,724,WeatherCatV1.11B39,2013-08-31 17:02:00,
2013-08-31 10:07:00,88.0,67.0,29.86,WNW,301,1.0,1.0,50,0.00,,,0.00,729,WeatherCatV1.11B39,2013-08-31 17:07:00,
2013-08-31 10:12:00,88.1,67.1,29.86,South,182,5.0,6.0,50,0.00,,,0.00,744,WeatherCatV1.11B39,2013-08-31 17:12:00,
2013-08-31 10:17:00,88.1,65.9,29.86,South,180,1.0,1.0,48,0.00,,,0.00,791,WeatherCatV1.11B39,2013-08-31 17:17:00,
2013-08-31 10:22:00,88.4,66.2,29.85,South,179,1.0,2.0,48,0.00,,,0.00,895,WeatherCatV1.11B39,2013-08-31 17:22:00,
2013-08-31 10:27:00,89.2,66.3,29.85,SW,234,2.0,4.0,47,0.00,,,0.00,737,WeatherCatV1.11B39,2013-08-31 17:27:00,
2013-08-31 10:32:00,89.4,66.5,29.85,South,185,4.0,5.0,47,0.00,,,0.00,622,WeatherCatV1.11B39,2013-08-31 17:32:00,
2013-08-31 10:37:00,89.3,65.8,29.85,WNW,298,4.0,4.0,46,0.00,,,0.00,619,WeatherCatV1.11B39,2013-08-31 17:37:00,
2013-08-31 10:42:00,89.2,66.3,29.85,NW,321,1.0,3.0,47,0.00,,,0.00,649,WeatherCatV1.11B39,2013-08-31 17:42:00,
2013-08-31 10:47:00,88.9,65.4,29.84,NW,322,0.0,1.0,46,0.00,,,0.00,513,WeatherCatV1.11B39,2013-08-31 17:47:00,
2013-08-31 10:52:00,89.3,66.4,29.84,West,270,1.0,7.0,47,0.00,,,0.00,675,WeatherCatV1.11B39,2013-08-31 17:52:00,
2013-08-31 10:57:00,89.3,65.8,29.84,West,267,2.0,5.0,46,0.00,,,0.00,661,WeatherCatV1.11B39,2013-08-31 17:57:00,
2013-08-31 11:02:00,89.8,66.8,29.84,West,259,3.0,4.0,47,0.00,,,0.00,652,WeatherCatV1.11B39,2013-08-31 18:02:00,
2013-08-31 11:07:00,89.4,65.9,29.84,WNW,292,4.0,5.0,46,0.00,,,0.00,701,WeatherCatV1.11B39,2013-08-31 18:07:00,
2013-08-31 11:12:00,88.9,65.4,29.83,WNW,302,2.0,7.0,46,0.00,,,0.00,643,WeatherCatV1.11B39,2013-08-31 18:12:00,
2013-08-31 11:17:00,89.4,65.9,29.83,NNW,335,2.0,2.0,46,0.00,,,0.00,872,WeatherCatV1.11B39,2013-08-31 18:17:00,
2013-08-31 11:22:00,90.4,66.1,29.83,SW,220,5.0,6.0,45,0.00,,,0.00,860,WeatherCatV1.11B39,2013-08-31 18:22:00,
2013-08-31 11:27:00,91.0,65.4,29.83,NW,305,0.0,3.0,43,0.00,,,0.00,860,WeatherCatV1.11B39,2013-08-31 18:27:00,
2013-08-31 11:32:00,91.3,66.9,29.83,WNW,282,1.0,4.0,45,0.00,,,0.00,863,WeatherCatV1.11B39,2013-08-31 18:32:00,
2013-08-31 11:37:00,91.2,65.5,29.83,WNW,300,6.0,8.0,43,0.00,,,0.00,870,WeatherCatV1.11B39,2013-08-31 18:37:00,
2013-08-31 11:42:00,90.5,65.6,29.82,NNW,348,3.0,3.0,44,0.00,,,0.00,874,WeatherCatV1.11B39,2013-08-31 18:42:00,
2013-08-31 11:47:00,91.0,66.7,29.82,NNE,20,1.0,2.0,45,0.00,,,0.00,877,WeatherCatV1.11B39,2013-08-31 18:47:00,
2013-08-31 11:52:00,92.5,66.0,29.82,WNW,287,3.0,4.0,42,0.00,,,0.00,879,WeatherCatV1.11B39,2013-08-31 18:52:00,
2013-08-31 11:57:00,92.5,67.4,29.82,SW,214,4.0,8.0,44,0.00,,,0.00,882,WeatherCatV1.11B39,2013-08-31 18:57:00,
2013-08-31 12:02:00,93.1,66.6,29.81,WNW,300,5.0,6.0,42,0.00,,,0.00,886,WeatherCatV1.11B39,2013-08-31 19:02:00,
2013-08-31 12:07:00,91.9,67.5,29.81,NNW,343,3.0,3.0,45,0.00,,,0.00,884,WeatherCatV1.11B39,2013-08-31 19:07:00,
2013-08-31 12:12:00,92.4,65.9,29.81,NNE,12,1.0,2.0,42,0.00,,,0.00,886,WeatherCatV1.11B39,2013-08-31 19:12:00,
2013-08-31 12:17:00,93.2,67.3,29.80,NNW,333,3.0,4.0,43,0.00,,,0.00,889,WeatherCatV1.11B39,2013-08-31 19:17:00,
2013-08-31 12:22:00,94.6,67.2,29.80,WNW,288,7.0,7.0,41,0.00,,,0.00,889,WeatherCatV1.11B39,2013-08-31 19:22:00,
2013-08-31 12:27:00,93.5,66.9,29.80,WSW,242,0.0,4.0,42,0.00,,,0.00,895,WeatherCatV1.11B39,2013-08-31 19:27:00,
2013-08-31 12:32:00,93.3,65.3,29.80,West,265,2.0,2.0,40,0.00,,,0.00,886,WeatherCatV1.11B39,2013-08-31 19:32:00,
2013-08-31 12:37:00,92.4,65.2,29.79,West,259,0.0,2.0,41,0.00,,,0.00,109,WeatherCatV1.11B39,2013-08-31 19:37:00,
2013-08-31 12:42:00,92.8,64.9,29.79,ENE,74,3.0,5.0,40,0.00,,,0.00,895,WeatherCatV1.11B39,2013-08-31 19:42:00,
2013-08-31 12:47:00,93.9,67.3,29.79,WNW,303,1.0,4.0,42,0.00,,,0.00,895,WeatherCatV1.11B39,2013-08-31 19:47:00,
2013-08-31 12:52:00,93.7,64.9,29.79,North,10,1.0,4.0,39,0.00,,,0.00,896,WeatherCatV1.11B39,2013-08-31 19:52:00,
2013-08-31 12:57:00,93.8,65.8,29.78,NW,320,3.0,8.0,40,0.00,,,0.00,893,WeatherCatV1.11B39,2013-08-31 19:57:00,
2013-08-31 13:02:00,94.8,65.9,29.78,WNW,297,4.0,5.0,39,0.00,,,0.00,902,WeatherCatV1.11B39,2013-08-31 20:02:00,
2013-08-31 13:07:00,95.2,67.0,29.78,NW,319,4.0,7.0,40,0.00,,,0.00,889,WeatherCatV1.11B39,2013-08-31 20:07:00,
2013-08-31 13:12:00,95.8,67.5,29.78,WSW,256,3.0,9.0,40,0.00,,,0.00,889,WeatherCatV1.11B39,2013-08-31 20:12:00,
2013-08-31 13:17:00,95.0,66.1,29.77,NNE,18,3.0,3.0,39,0.00,,,0.00,925,WeatherCatV1.11B39,2013-08-31 20:17:00,
2013-08-31 13:22:00,95.5,68.7,29.77,SW,222,5.0,11.0,42,0.00,,,0.00,933,WeatherCatV1.11B39,2013-08-31 20:22:00,
2013-08-31 13:27:00,95.9,67.6,29.77,SSW,192,6.0,10.0,40,0.00,,,0.00,926,WeatherCatV1.11B39,2013-08-31 20:27:00,
2013-08-31 13:32:00,96.0,67.7,29.76,South,172,1.0,6.0,40,0.00,,,0.00,891,WeatherCatV1.11B39,2013-08-31 20:32:00,
2013-08-31 13:37:00,96.3,68.0,29.76,SW,220,3.0,10.0,40,0.00,,,0.00,877,WeatherCatV1.11B39,2013-08-31 20:37:00,
2013-08-31 13:42:00,96.1,67.8,29.76,SSW,205,1.0,6.0,40,0.00,,,0.00,867,WeatherCatV1.11B39,2013-08-31 20:42:00,
2013-08-31 13:47:00,95.7,67.5,29.76,WSW,256,1.0,3.0,40,0.00,,,0.00,960,WeatherCatV1.11B39,2013-08-31 20:47:00,
2013-08-31 13:52:00,96.5,67.4,29.75,NW,311,7.0,12.0,39,0.00,,,0.00,942,WeatherCatV1.11B39,2013-08-31 20:52:00,
2013-08-31 13:57:00,95.7,67.5,29.75,South,190,6.0,8.0,40,0.00,,,0.00,928,WeatherCatV1.11B39,2013-08-31 20:57:00,
2013-08-31 14:02:00,96.8,66.2,29.75,WSW,253,1.0,11.0,37,0.00,,,0.00,954,WeatherCatV1.11B39,2013-08-31 21:02:00,
2013-08-31 14:07:00,97.1,68.0,29.75,SW,219,5.0,7.0,39,0.00,,,0.00,935,WeatherCatV1.11B39,2013-08-31 21:07:00,
2013-08-31 14:12:00,96.2,67.2,29.74,WSW,251,3.0,10.0,39,0.00,,,0.00,230,WeatherCatV1.11B39,2013-08-31 21:12:00,
2013-08-31 14:17:00,96.5,67.4,29.74,SW,222,3.0,10.0,39,0.00,,,0.00,928,WeatherCatV1.11B39,2013-08-31 21:17:00,
2013-08-31 14:22:00,97.2,68.0,29.74,SW,215,3.0,9.0,39,0.00,,,0.00,923,WeatherCatV1.11B39,2013-08-31 21:22:00,
2013-08-31 14:27:00,96.4,67.3,29.73,WSW,248,1.0,8.0,39,0.00,,,0.00,881,WeatherCatV1.11B39,2013-08-31 21:27:00,
2013-08-31 14:32:00,97.1,67.2,29.73,SW,231,10.0,10.0,38,0.00,,,0.00,225,WeatherCatV1.11B39,2013-08-31 21:32:00,
2013-08-31 14:37:00,96.7,66.9,29.72,SSE,161,2.0,6.0,38,0.00,,,0.00,926,WeatherCatV1.11B39,2013-08-31 21:37:00,
2013-08-31 14:42:00,98.9,67.2,29.72,West,264,6.0,14.0,36,0.00,,,0.00,881,WeatherCatV1.11B39,2013-08-31 21:42:00,
2013-08-31 14:47:00,98.9,66.4,29.71,WNW,294,3.0,6.0,35,0.00,,,0.00,838,WeatherCatV1.11B39,2013-08-31 21:47:00,
2013-08-31 14:52:00,98.0,65.6,29.72,WNW,303,3.0,8.0,35,0.00,,,0.00,840,WeatherCatV1.11B39,2013-08-31 21:52:00,
2013-08-31 14:57:00,96.2,65.6,29.72,West,281,8.0,13.0,37,0.00,,,0.00,181,WeatherCatV1.11B39,2013-08-31 21:57:00,
2013-08-31 15:02:00,95.1,64.7,29.72,NNW,335,4.0,13.0,37,0.00,,,0.00,172,WeatherCatV1.11B39,2013-08-31 22:02:00,
2013-08-31 15:07:00,95.3,65.6,29.71,NNE,12,6.0,9.0,38,0.00,,,0.00,188,WeatherCatV1.11B39,2013-08-31 22:07:00,
2013-08-31 15:12:00,94.6,63.5,29.72,WNW,302,2.0,6.0,36,0.00,,,0.00,279,WeatherCatV1.11B39,2013-08-31 22:12:00,
2013-08-31 15:17:00,94.2,63.1,29.72,NNW,343,1.0,9.0,36,0.00,,,0.00,193,WeatherCatV1.11B39,2013-08-31 22:17:00,
2013-08-31 15:22:00,94.5,64.1,29.71,NW,318,4.0,7.0,37,0.00,,,0.00,700,WeatherCatV1.11B39,2013-08-31 22:22:00,
2013-08-31 15:27:00,95.2,64.0,29.72,NW,307,6.0,11.0,36,0.00,,,0.00,677,WeatherCatV1.11B39,2013-08-31 22:27:00,
2013-08-31 15:32:00,96.5,65.1,29.72,NW,319,8.0,13.0,36,0.00,,,0.00,643,WeatherCatV1.11B39,2013-08-31 22:32:00,
2013-08-31 15:37:00,96.6,65.2,29.72,WNW,294,5.0,12.0,36,0.00,,,0.00,624,WeatherCatV1.11B39,2013-08-31 22:37:00,
2013-08-31 15:42:00,97.1,64.8,29.71,NW,317,7.0,12.0,35,0.00,,,0.00,613,WeatherCatV1.11B39,2013-08-31 22:42:00,
2013-08-31 15:47:00,96.7,64.5,29.71,WNW,292,8.0,14.0,35,0.00,,,0.00,608,WeatherCatV1.11B39,2013-08-31 22:47:00,
2013-08-31 15:52:00,96.1,64.0,29.70,NW,326,10.0,14.0,35,0.00,,,0.00,599,WeatherCatV1.11B39,2013-08-31 22:52:00,
2013-08-31 15:57:00,95.9,63.8,29.70,WNW,294,5.0,11.0,35,0.00,,,0.00,605,WeatherCatV1.11B39,2013-08-31 22:57:00,
2013-08-31 16:02:00,96.5,62.6,29.70,West,264,11.0,14.0,33,0.00,,,0.00,626,WeatherCatV1.11B39,2013-08-31 23:02:00,
2013-08-31 16:07:00,96.5,64.3,29.70,NNW,343,10.0,17.0,35,0.00,,,0.00,647,WeatherCatV1.11B39,2013-08-31 23:07:00,
2013-08-31 16:12:00,95.3,63.3,29.70,West,269,4.0,11.0,35,0.00,,,0.00,647,WeatherCatV1.11B39,2013-08-31 23:12:00,
2013-08-31 16:17:00,95.3,64.1,29.71,West,278,16.0,16.0,36,0.00,,,0.00,285,WeatherCatV1.11B39,2013-08-31 23:17:00,
2013-08-31 16:22:00,94.6,62.6,29.71,WNW,291,6.0,15.0,35,0.00,,,0.00,111,WeatherCatV1.11B39,2013-08-31 23:22:00,
2013-08-31 16:27:00,93.4,63.9,29.71,WNW,297,8.0,16.0,38,0.00,,,0.00,90,WeatherCatV1.11B39,2013-08-31 23:27:00,
2013-08-31 16:32:00,93.0,63.6,29.71,WNW,288,5.0,13.0,38,0.00,,,0.00,70,WeatherCatV1.11B39,2013-08-31 23:32:00,
2013-08-31 16:37:00,92.6,62.5,29.71,NNW,348,9.0,17.0,37,0.00,,,0.00,62,WeatherCatV1.11B39,2013-08-31 23:37:00,
2013-08-31 16:42:00,92.4,63.1,29.71,West,278,6.0,11.0,38,0.00,,,0.00,54,WeatherCatV1.11B39,2013-08-31 23:42:00,
2013-08-31 16:47:00,92.2,62.9,29.71,NNW,337,8.0,10.0,38,0.00,,,0.00,46,WeatherCatV1.11B39,2013-08-31 23:47:00,
2013-08-31 16:52:00,92.0,61.9,29.72,West,260,9.0,10.0,37,0.00,,,0.00,40,WeatherCatV1.11B39,2013-08-31 23:52:00,
2013-08-31 16:57:00,91.7,62.4,29.72,WSW,247,6.0,11.0,38,0.00,,,0.00,39,WeatherCatV1.11B39,2013-08-31 23:57:00,
2013-08-31 17:02:00,91.5,62.3,29.72,West,267,4.0,12.0,38,0.00,,,0.00,39,WeatherCatV1.11B39,2013-09-01 00:02:00,
2013-08-31 17:07:00,91.4,62.2,29.72,WNW,290,3.0,10.0,38,0.00,,,0.00,40,WeatherCatV1.11B39,2013-09-01 00:07:00,
2013-08-31 17:12:00,91.3,62.8,29.72,SSE,155,2.0,4.0,39,0.00,,,0.00,42,WeatherCatV1.11B39,2013-09-01 00:12:00,
2013-08-31 17:17:00,90.1,63.2,29.72,SE,133,4.0,5.0,41,0.00,,,0.00,47,WeatherCatV1.11B39,2013-09-01 00:17:00,
2013-08-31 17:22:00,89.3,63.8,29.72,SSE,157,3.0,6.0,43,0.00,,,0.00,53,WeatherCatV1.11B39,2013-09-01 00:22:00,
2013-08-31 17:27:00,89.0,64.2,29.72,SE,136,2.0,6.0,44,0.00,,,0.00,56,WeatherCatV1.11B39,2013-09-01 00:27:00,
2013-08-31 17:32:00,88.9,64.1,29.72,East,101,4.0,5.0,44,0.00,,,0.00,63,WeatherCatV1.11B39,2013-09-01 00:32:00,
2013-08-31 17:37:00,88.7,64.6,29.72,SE,124,3.0,4.0,45,0.00,,,0.00,72,WeatherCatV1.11B39,2013-09-01 00:37:00,
2013-08-31 17:42:00,88.5,64.4,29.71,SE,141,2.0,4.0,45,0.00,,,0.00,83,WeatherCatV1.11B39,2013-09-01 00:42:00,
2013-08-31 17:47:00,88.7,64.6,29.71,SE,145,0.0,3.0,45,0.00,,,0.00,81,WeatherCatV1.11B39,2013-09-01 00:47:00,
2013-08-31 17:52:00,88.8,64.7,29.72,SE,145,1.0,3.0,45,0.00,,,0.00,72,WeatherCatV1.11B39,2013-09-01 00:52:00,
2013-08-31 17:57:00,88.8,64.0,29.72,SE,145,2.0,2.0,44,0.00,,,0.00,62,WeatherCatV1.11B39,2013-09-01 00:57:00,
2013-08-31 18:03:00,88.8,64.7,29.71,SE,134,3.0,5.0,45,0.00,,,0.00,53,WeatherCatV1.11B39,2013-09-01 01:03:00,
2013-08-31 18:08:00,88.6,65.1,29.72,ESE,108,5.0,8.0,46,0.00,,,0.00,44,WeatherCatV1.11B39,2013-09-01 01:08:00,
2013-08-31 18:13:00,88.2,64.8,29.72,East,89,2.0,2.0,46,0.00,,,0.00,37,WeatherCatV1.11B39,2013-09-01 01:13:00,
2013-08-31 18:18:00,88.1,64.7,29.73,East,89,1.0,1.0,46,0.00,,,0.00,28,WeatherCatV1.11B39,2013-09-01 01:18:00,
2013-08-31 18:23:00,87.9,65.1,29.73,East,89,2.0,2.0,47,0.00,,,0.00,21,WeatherCatV1.11B39,2013-09-01 01:23:00,
2013-08-31 18:28:00,87.6,64.8,29.73,East,89,0.0,1.0,47,0.00,,,0.00,23,WeatherCatV1.11B39,2013-09-01 01:28:00,
2013-08-31 18:33:00,87.5,65.4,29.73,East,91,1.0,1.0,48,0.00,,,0.00,16,WeatherCatV1.11B39,2013-09-01 01:33:00,
2013-08-31 18:38:00,86.9,65.4,29.73,East,91,0.0,1.0,49,0.00,,,0.00,9,WeatherCatV1.11B39,2013-09-01 01:38:00,
2013-08-31 18:43:00,86.7,65.8,29.73,East,91,0.0,1.0,50,0.00,,,0.00,7,WeatherCatV1.11B39,2013-09-01 01:43:00,
2013-08-31 18:48:00,86.7,64.6,29.73,East,92,1.0,2.0,48,0.00,,,0.00,5,WeatherCatV1.11B39,2013-09-01 01:48:00,
2013-08-31 18:53:00,86.2,65.3,29.73,East,92,0.0,1.0,50,0.00,,,0.00,0,WeatherCatV1.11B39,2013-09-01 01:53:00,
2013-08-31 18:58:00,85.4,65.2,29.73,East,92,1.0,1.0,51,0.00,,,0.00,0,WeatherCatV1.11B39,2013-09-01 01:58:00,
2013-08-31 19:03:00,85.1,65.5,29.73,East,92,0.0,1.0,52,0.00,,,0.00,0,WeatherCatV1.11B39,2013-09-01 02:03:00,
2013-08-31 19:08:00,84.6,66.1,29.73,East,92,0.0,1.0,54,0.00,,,0.00,0,WeatherCatV1.11B39,2013-09-01 02:08:00,
2013-08-31 19:13:00,84.0,65.5,29.74,East,92,0.0,0.0,54,0.00,,,0.00,0,WeatherCatV1.11B39,2013-09-01 02:13:00,
2013-08-31 19:18:00,83.8,65.3,29.74,East,92,2.0,2.0,54,0.00,,,0.00,0,WeatherCatV1.11B39,2013-09-01 02:18:00,
2013-08-31 19:23:00,84.5,63.2,29.75,North,3,5.0,5.0,49,0.00,,,0.00,0,WeatherCatV1.11B39,2013-09-01 02:23:00,
2013-08-31 19:28:00,85.7,61.9,29.75,NW,322,4.0,8.0,45,0.00,,,0.00,0,WeatherCatV1.11B39,2013-09-01 02:28:00,
2013-08-31 19:33:00,86.8,62.2,29.75,NW,310,3.0,8.0,44,0.00,,,0.00,0,WeatherCatV1.11B39,2013-09-01 02:33:00,
2013-08-31 19:38:00,87.0,62.4,29.76,NNW,332,4.0,6.0,44,0.00,,,0.00,0,WeatherCatV1.11B39,2013-09-01 02:38:00,
2013-08-31 19:43:00,87.1,62.5,29.76,NNW,338,2.0,4.0,44,0.00,,,0.00,0,WeatherCatV1.11B39,2013-09-01 02:43:00,
2013-08-31 19:48:00,87.1,62.5,29.76,NW,324,2.0,6.0,44,0.00,,,0.00,0,WeatherCatV1.11B39,2013-09-01 02:48:00,
2013-08-31 19:53:00,87.0,62.4,29.76,NW,308,2.0,4.0,44,0.00,,,0.00,0,WeatherCatV1.11B39,2013-09-01 02:53:00,
2013-08-31 19:58:00,86.9,63.0,29.76,NW,307,0.0,1.0,45,0.00,,,0.00,0,WeatherCatV1.11B39,2013-09-01 02:58:00,
2013-08-31 20:03:00,86.4,63.1,29.76,NW,314,3.0,4.0,46,0.00,,,0.00,0,WeatherCatV1.11B39,2013-09-01 03:03:00,
2013-08-31 20:08:00,86.4,63.1,29.77,NNW,328,2.0,4.0,46,0.00,,,0.00,0,WeatherCatV1.11B39,2013-09-01 03:08:00,
2013-08-31 20:13:00,86.5,63.2,29.77,NNW,328,0.0,1.0,46,0.00,,,0.00,0,WeatherCatV1.11B39,2013-09-01 03:13:00,
2013-08-31 20:18:00,86.5,63.8,29.77,NNW,328,0.0,1.0,47,0.00,,,0.00,0,WeatherCatV1.11B39,2013-09-01 03:18:00,
2013-08-31 20:23:00,86.0,64.0,29.77,NNW,328,0.0,2.0,48,0.00,,,0.00,0,WeatherCatV1.11B39,2013-09-01 03:23:00,
2013-08-31 20:28:00,84.9,64.7,29.77,WNW,289,0.0,1.0,51,0.00,,,0.00,0,WeatherCatV1.11B39,2013-09-01 03:28:00,
2013-08-31 20:33:00,83.9,64.9,29.77,WNW,289,2.0,2.0,53,0.00,,,0.00,0,WeatherCatV1.11B39,2013-09-01 03:33:00,
2013-08-31 20:38:00,83.3,65.4,29.77,WNW,287,1.0,2.0,55,0.00,,,0.00,0,WeatherCatV1.11B39,2013-09-01 03:38:00,
2013-08-31 20:43:00,83.1,65.2,29.77,ENE,64,0.0,2.0,55,0.00,,,0.00,0,WeatherCatV1.11B39,2013-09-01 03:43:00,
2013-08-31 20:48:00,83.0,65.1,29.77,ENE,66,1.0,2.0,55,0.00,,,0.00,0,WeatherCatV1.11B39,2013-09-01 03:48:00,
2013-08-31 20:53:00,82.7,65.4,29.77,ENE,66,1.0,2.0,56,0.00,,,0.00,0,WeatherCatV1.11B39,2013-09-01 03:53:00,
2013-08-31 20:58:00,82.5,64.7,29.77,East,82,1.0,2.0,55,0.00,,,0.00,0,WeatherCatV1.11B39,2013-09-01 03:58:00,
2013-08-31 21:01:00,82.5,65.2,29.77,East,82,0.0,2.0,56,0.00,,,0.00,0,WeatherCatV1.11B39,2013-09-01 04:01:00,
2013-08-31 21:02:00,82.4,65.1,29.77,East,82,0.0,2.0,56,0.00,,,0.00,0,WeatherCatV1.11B39,2013-09-01 04:02:00,
2013-08-31 21:07:00,82.0,65.2,29.77,East,82,0.0,1.0,57,0.00,,,0.00,0,WeatherCatV1.11B39,2013-09-01 04:07:00,
2013-08-31 21:12:00,81.5,65.3,29.77,East,82,0.0,0.0,58,0.00,,,0.00,0,WeatherCatV1.11B39,2013-09-01 04:12:00,
2013-08-31 21:17:00,80.9,65.7,29.77,East,82,0.0,0.0,60,0.00,,,0.00,0,WeatherCatV1.11B39,2013-09-01 04:17:00,
2013-08-31 21:22:00,80.2,65.5,29.77,East,82,1.0,1.0,61,0.00,,,0.00,0,WeatherCatV1.11B39,2013-09-01 04:22:00,
2013-08-31 21:27:00,79.5,65.8,29.77,East,82,1.0,1.0,63,0.00,,,0.00,0,WeatherCatV1.11B39,2013-09-01 04:27:00,
2013-08-31 21:32:00,79.1,65.4,29.77,East,82,0.0,0.0,63,0.00,,,0.00,0,WeatherCatV1.11B39,2013-09-01 04:32:00,
2013-08-31 21:37:00,79.7,65.5,29.77,East,82,0.0,1.0,62,0.00,,,0.00,0,WeatherCatV1.11B39,2013-09-01 04:37:00,
2013-08-31 21:42:00,79.7,66.0,29.77,East,82,1.0,2.0,63,0.00,,,0.00,0,WeatherCatV1.11B39,2013-09-01 04:42:00,
2013-08-31 21:47:00,79.4,65.7,29.77,East,83,0.0,1.0,63,0.00,,,0.00,0,WeatherCatV1.11B39,2013-09-01 04:47:00,
2013-08-31 21:52:00,79.1,65.9,29.77,East,83,1.0,1.0,64,0.00,,,0.00,0,WeatherCatV1.11B39,2013-09-01 04:52:00,
2013-08-31 21:57:00,78.9,65.7,29.78,East,83,0.0,1.0,64,0.00,,,0.00,0,WeatherCatV1.11B39,2013-09-01 04:57:00,
2013-08-31 22:02:00,78.6,65.8,29.78,East,83,0.0,2.0,65,0.00,,,0.00,0,WeatherCatV1.11B39,2013-09-01 05:02:00,
2013-08-31 22:07:00,78.5,65.7,29.78,East,83,2.0,2.0,65,0.00,,,0.00,0,WeatherCatV1.11B39,2013-09-01 05:07:00,
2013-08-31 22:12:00,78.7,65.9,29.78,East,83,0.0,1.0,65,0.00,,,0.00,0,WeatherCatV1.11B39,2013-09-01 05:12:00,
2013-08-31 22:17:00,78.9,65.7,29.78,East,83,0.0,1.0,64,0.00,,,0.00,0,WeatherCatV1.11B39,2013-09-01 05:17:00,
2013-08-31 22:22:00,78.6,65.4,29.78,East,83,0.0,2.0,64,0.00,,,0.00,0,WeatherCatV1.11B39,2013-09-01 05:22:00,
2013-08-31 22:27:00,78.6,65.4,29.78,East,83,1.0,1.0,64,0.00,,,0.00,0,WeatherCatV1.11B39,2013-09-01 05:27:00,
2013-08-31 22:32:00,78.6,65.4,29.78,East,83,0.0,1.0,64,0.00,,,0.00,0,WeatherCatV1.11B39,2013-09-01 05:32:00,
2013-08-31 22:37:00,78.4,65.6,29.78,East,83,0.0,1.0,65,0.00,,,0.00,0,WeatherCatV1.11B39,2013-09-01 05:37:00,
2013-08-31 22:42:00,78.3,65.5,29.78,East,84,0.0,0.0,65,0.00,,,0.00,0,WeatherCatV1.11B39,2013-09-01 05:42:00,
2013-08-31 22:47:00,78.2,65.4,29.77,East,84,0.0,2.0,65,0.00,,,0.00,0,WeatherCatV1.11B39,2013-09-01 05:47:00,
2013-08-31 22:52:00,78.2,65.0,29.78,East,89,0.0,2.0,64,0.00,,,0.00,0,WeatherCatV1.11B39,2013-09-01 05:52:00,
2013-08-31 22:57:00,78.0,64.8,29.77,East,89,0.0,1.0,64,0.00,,,0.00,0,WeatherCatV1.11B39,2013-09-01 05:57:00,
2013-08-31 23:02:00,77.5,65.2,29.78,East,89,0.0,1.0,66,0.00,,,0.00,0,WeatherCatV1.11B39,2013-09-01 06:02:00,
2013-08-31 23:07:00,77.2,64.9,29.78,East,89,0.0,0.0,66,0.00,,,0.00,0,WeatherCatV1.11B39,2013-09-01 06:07:00,
2013-08-31 23:12:00,76.9,65.5,29.78,East,89,0.0,2.0,68,0.00,,,0.00,0,WeatherCatV1.11B39,2013-09-01 06:12:00,
2013-08-31 23:17:00,77.3,65.5,29.78,East,89,1.0,1.0,67,0.00,,,0.00,0,WeatherCatV1.11B39,2013-09-01 06:17:00,
2013-08-31 23:22:00,77.0,64.8,29.79,East,88,1.0,2.0,66,0.00,,,0.00,0,WeatherCatV1.11B39,2013-09-01 06:22:00,
2013-08-31 23:27:00,76.6,65.2,29.79,East,86,2.0,2.0,68,0.00,,,0.00,0,WeatherCatV1.11B39,2013-09-01 06:27:00,
2013-08-31 23:32:00,77.0,64.8,29.79,East,86,0.0,0.0,66,0.00,,,0.00,0,WeatherCatV1.11B39,2013-09-01 06:32:00,
2013-08-31 23:37:00,77.1,65.3,29.79,East,86,0.0,0.0,67,0.00,,,0.00,0,WeatherCatV1.11B39,2013-09-01 06:37:00,
2013-08-31 23:42:00,77.0,64.8,29.78,East,86,1.0,1.0,66,0.00,,,0.00,0,WeatherCatV1.11B39,2013-09-01 06:42:00,
2013-08-31 23:47:00,77.0,64.8,29.78,East,86,0.0,1.0,66,0.00,,,0.00,0,WeatherCatV1.11B39,2013-09-01 06:47:00,
2013-08-31 23:52:00,77.0,64.8,29.78,East,86,0.0,1.0,66,0.00,,,0.00,0,WeatherCatV1.11B39,2013-09-01 06:52:00,
2013-08-31 23:57:00,76.9,65.1,29.78,East,86,0.0,0.0,67,0.00,,,0.00,0,WeatherCatV1.11B39,2013-09-01 06:57:00,